Year,Month,Day,Hour,Minute,Value (Times are PST for temperature in C)
2018,04,26,00,00,10.30
2018,04,26,00,01,10.30
2018,04,26,00,02,10.30
2018,04,26,00,03,10.30
2018,04,26,00,04,10.30
2018,04,26,00,05,10.40
2018,04,26,00,06,10.40
2018,04,26,00,07,10.40
2018,04,26,00,08,10.40
2018,04,26,00,09,10.40
2018,04,26,00,10,10.40
2018,04,26,00,11,10.40
2018,04,26,00,12,10.50
2018,04,26,00,13,10.60
2018,04,26,00,14,10.60
2018,04,26,00,15,10.70
2018,04,26,00,16,10.70
2018,04,26,00,17,10.80
2018,04,26,00,18,10.80
2018,04,26,00,19,10.80
2018,04,26,00,20,10.80
2018,04,26,00,21,10.90
2018,04,26,00,22,10.90
2018,04,26,00,23,10.90
2018,04,26,00,24,10.90
2018,04,26,00,25,10.90
2018,04,26,00,26,10.80
2018,04,26,00,27,10.80
2018,04,26,00,28,10.70
2018,04,26,00,29,10.70
2018,04,26,00,30,10.60
2018,04,26,00,31,10.60
2018,04,26,00,32,10.50
2018,04,26,00,33,10.40
2018,04,26,00,34,10.40
2018,04,26,00,35,10.40
2018,04,26,00,36,10.40
2018,04,26,00,37,10.40
2018,04,26,00,38,10.30
2018,04,26,00,39,10.30
2018,04,26,00,40,10.30
2018,04,26,00,41,10.20
2018,04,26,00,42,10.20
2018,04,26,00,43,10.20
2018,04,26,00,44,10.10
2018,04,26,00,45,10.10
2018,04,26,00,46,10.10
2018,04,26,00,47,10.10
2018,04,26,00,48,10.00
2018,04,26,00,49,9.90
2018,04,26,00,50,9.90
2018,04,26,00,51,9.90
2018,04,26,00,52,9.90
2018,04,26,00,53,9.90
2018,04,26,00,54,9.90
2018,04,26,00,55,9.80
2018,04,26,00,56,9.80
2018,04,26,00,57,9.80
2018,04,26,00,58,9.80
2018,04,26,00,59,9.80
2018,04,26,01,00,9.80
2018,04,26,01,01,9.80
2018,04,26,01,02,9.80
2018,04,26,01,03,9.80
2018,04,26,01,04,9.80
2018,04,26,01,05,9.90
2018,04,26,01,06,9.90
2018,04,26,01,07,9.90
2018,04,26,01,08,9.90
2018,04,26,01,09,9.90
2018,04,26,01,10,9.90
2018,04,26,01,11,9.90
2018,04,26,01,12,9.90
2018,04,26,01,13,10.00
2018,04,26,01,14,10.10
2018,04,26,01,15,10.10
2018,04,26,01,16,10.20
2018,04,26,01,17,10.20
2018,04,26,01,18,10.30
2018,04,26,01,19,10.40
2018,04,26,01,20,10.50
2018,04,26,01,21,10.60
2018,04,26,01,22,10.60
2018,04,26,01,23,10.60
2018,04,26,01,24,10.60
2018,04,26,01,25,10.60
2018,04,26,01,26,10.60
2018,04,26,01,27,10.60
2018,04,26,01,28,10.60
2018,04,26,01,29,10.60
2018,04,26,01,30,10.60
2018,04,26,01,31,10.70
2018,04,26,01,32,10.80
2018,04,26,01,33,10.90
2018,04,26,01,34,10.90
2018,04,26,01,35,11.00
2018,04,26,01,36,11.10
2018,04,26,01,37,11.10
2018,04,26,01,38,11.00
2018,04,26,01,39,10.90
2018,04,26,01,40,10.80
2018,04,26,01,41,10.70
2018,04,26,01,42,10.50
2018,04,26,01,43,10.30
2018,04,26,01,44,10.20
2018,04,26,01,45,10.00
2018,04,26,01,46,9.80
2018,04,26,01,47,9.70
2018,04,26,01,48,9.60
2018,04,26,01,49,9.50
2018,04,26,01,50,9.40
2018,04,26,01,51,9.40
2018,04,26,01,52,9.30
2018,04,26,01,53,9.20
2018,04,26,01,54,9.20
2018,04,26,01,55,9.20
2018,04,26,01,56,9.20
2018,04,26,01,57,9.20
2018,04,26,01,58,9.20
2018,04,26,01,59,9.20
2018,04,26,02,00,9.20
2018,04,26,02,01,9.20
2018,04,26,02,02,9.20
2018,04,26,02,03,9.20
2018,04,26,02,04,9.20
2018,04,26,02,05,9.20
2018,04,26,02,06,9.20
2018,04,26,02,07,9.20
2018,04,26,02,08,9.20
2018,04,26,02,09,9.20
2018,04,26,02,10,9.20
2018,04,26,02,11,9.20
2018,04,26,02,12,9.20
2018,04,26,02,13,9.20
2018,04,26,02,14,9.20
2018,04,26,02,15,9.20
2018,04,26,02,16,9.30
2018,04,26,02,17,9.30
2018,04,26,02,18,9.40
2018,04,26,02,19,9.40
2018,04,26,02,20,9.40
2018,04,26,02,21,9.50
2018,04,26,02,22,9.50
2018,04,26,02,23,9.60
2018,04,26,02,24,9.60
2018,04,26,02,25,9.70
2018,04,26,02,26,9.70
2018,04,26,02,27,9.70
2018,04,26,02,28,9.70
2018,04,26,02,29,9.70
2018,04,26,02,30,9.70
2018,04,26,02,31,9.70
2018,04,26,02,32,9.70
2018,04,26,02,33,9.70
2018,04,26,02,34,9.60
2018,04,26,02,35,9.50
2018,04,26,02,36,9.40
2018,04,26,02,37,9.30
2018,04,26,02,38,9.20
2018,04,26,02,39,9.10
2018,04,26,02,40,9.00
2018,04,26,02,41,8.90
2018,04,26,02,42,8.80
2018,04,26,02,43,8.70
2018,04,26,02,44,8.70
2018,04,26,02,45,8.60
2018,04,26,02,46,8.50
2018,04,26,02,47,8.50
2018,04,26,02,48,8.50
2018,04,26,02,49,8.50
2018,04,26,02,50,8.50
2018,04,26,02,51,8.50
2018,04,26,02,52,8.50
2018,04,26,02,53,8.50
2018,04,26,02,54,8.40
2018,04,26,02,55,8.40
2018,04,26,02,56,8.40
2018,04,26,02,57,8.40
2018,04,26,02,58,8.50
2018,04,26,02,59,8.50
2018,04,26,03,00,8.50
2018,04,26,03,01,8.50
2018,04,26,03,02,8.50
2018,04,26,03,03,8.40
2018,04,26,03,04,8.40
2018,04,26,03,05,8.40
2018,04,26,03,06,8.40
2018,04,26,03,07,8.40
2018,04,26,03,08,8.40
2018,04,26,03,09,8.40
2018,04,26,03,10,8.50
2018,04,26,03,11,8.50
2018,04,26,03,12,8.60
2018,04,26,03,13,8.70
2018,04,26,03,14,8.70
2018,04,26,03,15,8.70
2018,04,26,03,16,8.80
2018,04,26,03,17,8.90
2018,04,26,03,18,8.90
2018,04,26,03,19,9.00
2018,04,26,03,20,9.00
2018,04,26,03,21,9.20
2018,04,26,03,22,9.20
2018,04,26,03,23,9.30
2018,04,26,03,24,9.40
2018,04,26,03,25,9.50
2018,04,26,03,26,9.60
2018,04,26,03,27,9.70
2018,04,26,03,28,9.70
2018,04,26,03,29,9.80
2018,04,26,03,30,9.90
2018,04,26,03,31,9.90
2018,04,26,03,32,10.10
2018,04,26,03,33,10.10
2018,04,26,03,34,10.20
2018,04,26,03,35,10.20
2018,04,26,03,36,10.30
2018,04,26,03,37,10.30
2018,04,26,03,38,10.40
2018,04,26,03,39,10.40
2018,04,26,03,40,10.40
2018,04,26,03,41,10.40
2018,04,26,03,42,10.40
2018,04,26,03,43,10.40
2018,04,26,03,44,10.40
2018,04,26,03,45,10.40
2018,04,26,03,46,10.40
2018,04,26,03,47,10.40
2018,04,26,03,48,10.40
2018,04,26,03,49,10.40
2018,04,26,03,50,10.40
2018,04,26,03,51,10.40
2018,04,26,03,52,10.40
2018,04,26,03,53,10.40
2018,04,26,03,54,10.50
2018,04,26,03,55,10.60
2018,04,26,03,56,10.70
2018,04,26,03,57,10.70
2018,04,26,03,58,10.80
2018,04,26,03,59,10.80
2018,04,26,04,00,10.90
2018,04,26,04,01,10.90
2018,04,26,04,02,10.90
2018,04,26,04,03,10.90
2018,04,26,04,04,10.90
2018,04,26,04,05,10.90
2018,04,26,04,06,10.90
2018,04,26,04,07,10.90
2018,04,26,04,08,10.80
2018,04,26,04,09,10.80
2018,04,26,04,10,10.70
2018,04,26,04,11,10.70
2018,04,26,04,12,10.60
2018,04,26,04,13,10.60
2018,04,26,04,14,10.60
2018,04,26,04,15,10.60
2018,04,26,04,16,10.70
2018,04,26,04,17,10.80
2018,04,26,04,18,11.00
2018,04,26,04,19,11.10
2018,04,26,04,20,11.40
2018,04,26,04,21,11.50
2018,04,26,04,22,11.70
2018,04,26,04,23,11.80
2018,04,26,04,24,12.00
2018,04,26,04,25,12.00
2018,04,26,04,26,12.10
2018,04,26,04,27,12.20
2018,04,26,04,28,12.30
2018,04,26,04,29,12.30
2018,04,26,04,30,12.30
2018,04,26,04,31,12.30
2018,04,26,04,32,12.40
2018,04,26,04,33,12.40
2018,04,26,04,34,12.40
2018,04,26,04,35,12.50
2018,04,26,04,36,12.50
2018,04,26,04,37,12.50
2018,04,26,04,38,12.60
2018,04,26,04,39,12.60
2018,04,26,04,40,12.60
2018,04,26,04,41,12.60
2018,04,26,04,42,12.60
2018,04,26,04,43,12.70
2018,04,26,04,44,12.80
2018,04,26,04,45,12.80
2018,04,26,04,46,12.90
2018,04,26,04,47,12.90
2018,04,26,04,48,12.90
2018,04,26,04,49,13.00
2018,04,26,04,50,13.00
2018,04,26,04,51,13.00
2018,04,26,04,52,13.10
2018,04,26,04,53,13.10
2018,04,26,04,54,13.20
2018,04,26,04,55,13.20
2018,04,26,04,56,13.20
2018,04,26,04,57,13.20
2018,04,26,04,58,13.20
2018,04,26,04,59,13.20
2018,04,26,05,00,13.10
2018,04,26,05,01,13.00
2018,04,26,05,02,13.00
2018,04,26,05,03,13.00
2018,04,26,05,04,12.90
2018,04,26,05,05,12.90
2018,04,26,05,06,13.00
2018,04,26,05,07,13.00
2018,04,26,05,08,13.00
2018,04,26,05,09,13.00
2018,04,26,05,10,13.00
2018,04,26,05,11,13.00
2018,04,26,05,12,13.10
2018,04,26,05,13,13.10
2018,04,26,05,14,13.10
2018,04,26,05,15,13.20
2018,04,26,05,16,13.20
2018,04,26,05,17,13.30
2018,04,26,05,18,13.30
2018,04,26,05,19,13.30
2018,04,26,05,20,13.30
2018,04,26,05,21,13.30
2018,04,26,05,22,13.40
2018,04,26,05,23,13.50
2018,04,26,05,24,13.50
2018,04,26,05,25,13.60
2018,04,26,05,26,13.70
2018,04,26,05,27,13.70
2018,04,26,05,28,13.70
2018,04,26,05,29,13.70
2018,04,26,05,30,13.70
2018,04,26,05,31,13.80
2018,04,26,05,32,13.80
2018,04,26,05,33,13.80
2018,04,26,05,34,13.80
2018,04,26,05,35,13.80
2018,04,26,05,36,13.80
2018,04,26,05,37,13.80
2018,04,26,05,38,13.80
2018,04,26,05,39,13.80
2018,04,26,05,40,13.80
2018,04,26,05,41,13.80
2018,04,26,05,42,13.80
2018,04,26,05,43,13.80
2018,04,26,05,44,13.80
2018,04,26,05,45,13.90
2018,04,26,05,46,13.90
2018,04,26,05,47,14.00
2018,04,26,05,48,14.00
2018,04,26,05,49,14.10
2018,04,26,05,50,14.10
2018,04,26,05,51,14.10
2018,04,26,05,52,14.10
2018,04,26,05,53,14.20
2018,04,26,05,54,14.20
2018,04,26,05,55,14.20
2018,04,26,05,56,14.10
2018,04,26,05,57,14.10
2018,04,26,05,58,14.10
2018,04,26,05,59,14.10
2018,04,26,06,00,14.10
2018,04,26,06,01,14.00
2018,04,26,06,02,14.00
2018,04,26,06,03,13.90
2018,04,26,06,04,13.90
2018,04,26,06,05,13.90
2018,04,26,06,06,13.80
2018,04,26,06,07,13.80
2018,04,26,06,08,13.80
2018,04,26,06,09,13.70
2018,04,26,06,10,13.70
2018,04,26,06,11,13.70
2018,04,26,06,12,13.70
2018,04,26,06,13,13.70
2018,04,26,06,14,13.70
2018,04,26,06,15,13.70
2018,04,26,06,16,13.70
2018,04,26,06,17,13.80
2018,04,26,06,18,13.80
2018,04,26,06,19,13.80
2018,04,26,06,20,13.80
2018,04,26,06,21,13.90
2018,04,26,06,22,13.90
2018,04,26,06,23,13.90
2018,04,26,06,24,14.00
2018,04,26,06,25,14.00
2018,04,26,06,26,14.00
2018,04,26,06,27,14.00
2018,04,26,06,28,14.10
2018,04,26,06,29,14.10
2018,04,26,06,30,14.10
2018,04,26,06,31,14.20
2018,04,26,06,32,14.20
2018,04,26,06,33,14.20
2018,04,26,06,34,14.20
2018,04,26,06,35,14.20
2018,04,26,06,36,14.20
2018,04,26,06,37,14.10
2018,04,26,06,38,14.10
2018,04,26,06,39,14.10
2018,04,26,06,40,14.20
2018,04,26,06,41,14.20
2018,04,26,06,42,14.20
2018,04,26,06,43,14.20
2018,04,26,06,44,14.20
2018,04,26,06,45,14.20
2018,04,26,06,46,14.20
2018,04,26,06,47,14.20
2018,04,26,06,48,14.20
2018,04,26,06,49,14.20
2018,04,26,06,50,14.20
2018,04,26,06,51,14.20
2018,04,26,06,52,14.20
2018,04,26,06,53,14.20
2018,04,26,06,54,14.20
2018,04,26,06,55,14.20
2018,04,26,06,56,14.20
2018,04,26,06,57,14.20
2018,04,26,06,58,14.20
2018,04,26,06,59,14.30
2018,04,26,07,00,14.30
2018,04,26,07,01,14.40
2018,04,26,07,02,14.40
2018,04,26,07,03,14.40
2018,04,26,07,04,14.50
2018,04,26,07,05,14.50
2018,04,26,07,06,14.60
2018,04,26,07,07,14.70
2018,04,26,07,08,14.70
2018,04,26,07,09,14.80
2018,04,26,07,10,14.80
2018,04,26,07,11,14.80
2018,04,26,07,12,14.80
2018,04,26,07,13,14.80
2018,04,26,07,14,14.90
2018,04,26,07,15,14.90
2018,04,26,07,16,14.90
2018,04,26,07,17,14.90
2018,04,26,07,18,14.90
2018,04,26,07,19,14.90
2018,04,26,07,20,14.90
2018,04,26,07,21,14.90
2018,04,26,07,22,14.90
2018,04,26,07,23,15.00
2018,04,26,07,24,15.00
2018,04,26,07,25,15.10
2018,04,26,07,26,15.10
2018,04,26,07,27,15.20
2018,04,26,07,28,15.20
2018,04,26,07,29,15.20
2018,04,26,07,30,15.30
2018,04,26,07,31,15.30
2018,04,26,07,32,15.40
2018,04,26,07,33,15.40
2018,04,26,07,34,15.40
2018,04,26,07,35,15.40
2018,04,26,07,36,15.50
2018,04,26,07,37,15.50
2018,04,26,07,38,15.50
2018,04,26,07,39,15.60
2018,04,26,07,40,15.60
2018,04,26,07,41,15.70
2018,04,26,07,42,15.70
2018,04,26,07,43,15.80
2018,04,26,07,44,15.80
2018,04,26,07,45,15.80
2018,04,26,07,46,15.80
2018,04,26,07,47,15.90
2018,04,26,07,48,16.00
2018,04,26,07,49,16.10
2018,04,26,07,50,16.10
2018,04,26,07,51,16.20
2018,04,26,07,52,16.30
2018,04,26,07,53,16.30
2018,04,26,07,54,16.30
2018,04,26,07,55,16.30
2018,04,26,07,56,16.40
2018,04,26,07,57,16.40
2018,04,26,07,58,16.50
2018,04,26,07,59,16.60
2018,04,26,08,00,16.60
2018,04,26,08,01,16.60
2018,04,26,08,02,16.70
2018,04,26,08,03,16.70
2018,04,26,08,04,16.70
2018,04,26,08,05,16.80
2018,04,26,08,06,16.90
2018,04,26,08,07,16.90
2018,04,26,08,08,17.00
2018,04,26,08,09,17.00
2018,04,26,08,10,17.00
2018,04,26,08,11,17.10
2018,04,26,08,12,17.10
2018,04,26,08,13,17.20
2018,04,26,08,14,17.20
2018,04,26,08,15,17.30
2018,04,26,08,16,17.30
2018,04,26,08,17,17.30
2018,04,26,08,18,17.30
2018,04,26,08,19,17.40
2018,04,26,08,20,17.40
2018,04,26,08,21,17.50
2018,04,26,08,22,17.50
2018,04,26,08,23,17.60
2018,04,26,08,24,17.60
2018,04,26,08,25,17.60
2018,04,26,08,26,17.60
2018,04,26,08,27,17.60
2018,04,26,08,28,17.60
2018,04,26,08,29,17.60
2018,04,26,08,30,17.60
2018,04,26,08,31,17.60
2018,04,26,08,32,17.60
2018,04,26,08,33,17.60
2018,04,26,08,34,17.70
2018,04,26,08,35,17.70
2018,04,26,08,36,17.60
2018,04,26,08,37,17.60
2018,04,26,08,38,17.70
2018,04,26,08,39,17.70
2018,04,26,08,40,17.70
2018,04,26,08,41,17.70
2018,04,26,08,42,17.70
2018,04,26,08,43,17.80
2018,04,26,08,44,17.90
2018,04,26,08,45,17.90
2018,04,26,08,46,17.90
2018,04,26,08,47,17.90
2018,04,26,08,48,17.90
2018,04,26,08,49,17.90
2018,04,26,08,50,17.90
2018,04,26,08,51,17.90
2018,04,26,08,52,18.00
2018,04,26,08,53,18.10
2018,04,26,08,54,18.20
2018,04,26,08,55,18.20
2018,04,26,08,56,18.20
2018,04,26,08,57,18.30
2018,04,26,08,58,18.30
2018,04,26,08,59,18.40
2018,04,26,09,00,18.40
2018,04,26,09,01,18.40
2018,04,26,09,02,18.50
2018,04,26,09,03,18.50
2018,04,26,09,04,18.50
2018,04,26,09,05,18.50
2018,04,26,09,06,18.50
2018,04,26,09,07,18.40
2018,04,26,09,08,18.50
2018,04,26,09,09,18.50
2018,04,26,09,10,18.50
2018,04,26,09,11,18.60
2018,04,26,09,12,18.70
2018,04,26,09,13,18.80
2018,04,26,09,14,18.80
2018,04,26,09,15,18.90
2018,04,26,09,16,18.90
2018,04,26,09,17,18.90
2018,04,26,09,18,18.80
2018,04,26,09,19,18.90
2018,04,26,09,20,18.90
2018,04,26,09,21,19.00
2018,04,26,09,22,19.10
2018,04,26,09,23,19.10
2018,04,26,09,24,19.10
2018,04,26,09,25,19.10
2018,04,26,09,26,19.10
2018,04,26,09,27,19.10
2018,04,26,09,28,19.10
2018,04,26,09,29,19.20
2018,04,26,09,30,19.10
2018,04,26,09,31,19.00
2018,04,26,09,32,18.90
2018,04,26,09,33,19.10
2018,04,26,09,34,19.10
2018,04,26,09,35,19.10
2018,04,26,09,36,19.10
2018,04,26,09,37,19.20
2018,04,26,09,38,19.30
2018,04,26,09,39,19.40
2018,04,26,09,40,19.50
2018,04,26,09,41,19.50
2018,04,26,09,42,19.60
2018,04,26,09,43,19.60
2018,04,26,09,44,19.70
2018,04,26,09,45,19.70
2018,04,26,09,46,19.80
2018,04,26,09,47,19.90
2018,04,26,09,48,19.90
2018,04,26,09,49,19.80
2018,04,26,09,50,19.80
2018,04,26,09,51,19.80
2018,04,26,09,52,19.80
2018,04,26,09,53,19.80
2018,04,26,09,54,19.70
2018,04,26,09,55,19.70
2018,04,26,09,56,19.80
2018,04,26,09,57,19.80
2018,04,26,09,58,19.80
2018,04,26,09,59,19.70
2018,04,26,10,00,19.60
2018,04,26,10,01,19.70
2018,04,26,10,02,19.70
2018,04,26,10,03,19.70
2018,04,26,10,04,19.70
2018,04,26,10,05,19.90
2018,04,26,10,06,19.90
2018,04,26,10,07,20.00
2018,04,26,10,08,20.10
2018,04,26,10,09,20.20
2018,04,26,10,10,20.20
2018,04,26,10,11,20.30
2018,04,26,10,12,20.30
2018,04,26,10,13,20.30
2018,04,26,10,14,20.20
2018,04,26,10,15,20.20
2018,04,26,10,16,20.20
2018,04,26,10,17,20.20
2018,04,26,10,18,20.20
2018,04,26,10,19,20.20
2018,04,26,10,20,20.20
2018,04,26,10,21,20.20
2018,04,26,10,22,20.30
2018,04,26,10,23,20.30
2018,04,26,10,24,20.40
2018,04,26,10,25,20.40
2018,04,26,10,26,20.40
2018,04,26,10,27,20.40
2018,04,26,10,28,20.40
2018,04,26,10,29,20.40
2018,04,26,10,30,20.40
2018,04,26,10,31,20.60
2018,04,26,10,32,20.60
2018,04,26,10,33,20.50
2018,04,26,10,34,20.50
2018,04,26,10,35,20.50
2018,04,26,10,36,20.50
2018,04,26,10,37,20.50
2018,04,26,10,38,20.60
2018,04,26,10,39,20.60
2018,04,26,10,40,20.60
2018,04,26,10,41,20.70
2018,04,26,10,42,20.70
2018,04,26,10,43,20.70
2018,04,26,10,44,20.70
2018,04,26,10,45,20.80
2018,04,26,10,46,20.80
2018,04,26,10,47,20.90
2018,04,26,10,48,20.90
2018,04,26,10,49,20.90
2018,04,26,10,50,20.90
2018,04,26,10,51,20.90
2018,04,26,10,52,20.90
2018,04,26,10,53,20.90
2018,04,26,10,54,21.00
2018,04,26,10,55,21.10
2018,04,26,10,56,21.30
2018,04,26,10,57,21.30
2018,04,26,10,58,21.50
2018,04,26,10,59,21.60
2018,04,26,11,00,21.60
2018,04,26,11,01,21.60
2018,04,26,11,02,21.60
2018,04,26,11,03,21.50
2018,04,26,11,04,21.40
2018,04,26,11,05,21.50
2018,04,26,11,06,21.60
2018,04,26,11,07,21.60
2018,04,26,11,08,21.60
2018,04,26,11,09,21.50
2018,04,26,11,10,21.40
2018,04,26,11,11,21.40
2018,04,26,11,12,21.30
2018,04,26,11,13,21.30
2018,04,26,11,14,21.20
2018,04,26,11,15,21.10
2018,04,26,11,16,21.00
2018,04,26,11,17,21.00
2018,04,26,11,18,21.00
2018,04,26,11,19,21.10
2018,04,26,11,20,21.30
2018,04,26,11,21,21.40
2018,04,26,11,22,21.60
2018,04,26,11,23,21.60
2018,04,26,11,24,21.70
2018,04,26,11,25,21.80
2018,04,26,11,26,21.90
2018,04,26,11,27,22.00
2018,04,26,11,28,21.90
2018,04,26,11,29,21.80
2018,04,26,11,30,21.60
2018,04,26,11,31,21.60
2018,04,26,11,32,21.60
2018,04,26,11,33,21.60
2018,04,26,11,34,21.40
2018,04,26,11,35,21.30
2018,04,26,11,36,21.30
2018,04,26,11,37,21.30
2018,04,26,11,38,21.40
2018,04,26,11,39,21.30
2018,04,26,11,40,21.30
2018,04,26,11,41,21.30
2018,04,26,11,42,21.30
2018,04,26,11,43,21.30
2018,04,26,11,44,21.40
2018,04,26,11,45,21.40
2018,04,26,11,46,21.50
2018,04,26,11,47,21.60
2018,04,26,11,48,21.80
2018,04,26,11,49,22.00
2018,04,26,11,50,22.00
2018,04,26,11,51,22.10
2018,04,26,11,52,22.10
2018,04,26,11,53,22.10
2018,04,26,11,54,22.10
2018,04,26,11,55,22.10
2018,04,26,11,56,22.00
2018,04,26,11,57,21.90
2018,04,26,11,58,22.00
2018,04,26,11,59,21.90
2018,04,26,12,00,22.00
2018,04,26,12,01,22.10
2018,04,26,12,02,22.10
2018,04,26,12,03,22.10
2018,04,26,12,04,22.10
2018,04,26,12,05,22.00
2018,04,26,12,06,21.90
2018,04,26,12,07,21.90
2018,04,26,12,08,21.90
2018,04,26,12,09,21.90
2018,04,26,12,10,21.80
2018,04,26,12,11,21.80
2018,04,26,12,12,21.80
2018,04,26,12,13,21.90
2018,04,26,12,14,22.00
2018,04,26,12,15,22.00
2018,04,26,12,16,22.00
2018,04,26,12,17,21.90
2018,04,26,12,18,21.80
2018,04,26,12,19,21.90
2018,04,26,12,20,22.00
2018,04,26,12,21,22.00
2018,04,26,12,22,22.10
2018,04,26,12,23,22.00
2018,04,26,12,24,21.90
2018,04,26,12,25,21.90
2018,04,26,12,26,21.80
2018,04,26,12,27,21.70
2018,04,26,12,28,21.70
2018,04,26,12,29,21.80
2018,04,26,12,30,21.80
2018,04,26,12,31,22.00
2018,04,26,12,32,22.20
2018,04,26,12,33,22.20
2018,04,26,12,34,22.10
2018,04,26,12,35,22.10
2018,04,26,12,36,22.20
2018,04,26,12,37,22.30
2018,04,26,12,38,22.40
2018,04,26,12,39,22.60
2018,04,26,12,40,22.70
2018,04,26,12,41,22.80
2018,04,26,12,42,22.90
2018,04,26,12,43,22.90
2018,04,26,12,44,22.80
2018,04,26,12,45,22.80
2018,04,26,12,46,22.60
2018,04,26,12,47,22.40
2018,04,26,12,48,22.30
2018,04,26,12,49,22.20
2018,04,26,12,50,22.20
2018,04,26,12,51,22.10
2018,04,26,12,52,22.20
2018,04,26,12,53,22.20
2018,04,26,12,54,22.10
2018,04,26,12,55,22.10
2018,04,26,12,56,22.10
2018,04,26,12,57,22.00
2018,04,26,12,58,21.90
2018,04,26,12,59,22.00
2018,04,26,13,00,22.00
2018,04,26,13,01,22.00
2018,04,26,13,02,21.90
2018,04,26,13,03,21.90
2018,04,26,13,04,21.90
2018,04,26,13,05,21.90
2018,04,26,13,06,22.00
2018,04,26,13,07,22.20
2018,04,26,13,08,22.50
2018,04,26,13,09,22.60
2018,04,26,13,10,22.60
2018,04,26,13,11,22.60
2018,04,26,13,12,22.60
2018,04,26,13,13,22.70
2018,04,26,13,14,22.80
2018,04,26,13,15,22.70
2018,04,26,13,16,22.70
2018,04,26,13,17,22.60
2018,04,26,13,18,22.70
2018,04,26,13,19,22.80
2018,04,26,13,20,22.80
2018,04,26,13,21,22.90
2018,04,26,13,22,22.90
2018,04,26,13,23,22.90
2018,04,26,13,24,22.90
2018,04,26,13,25,22.80
2018,04,26,13,26,22.70
2018,04,26,13,27,22.80
2018,04,26,13,28,22.80
2018,04,26,13,29,22.80
2018,04,26,13,30,22.70
2018,04,26,13,31,22.60
2018,04,26,13,32,22.50
2018,04,26,13,33,22.50
2018,04,26,13,34,22.60
2018,04,26,13,35,22.60
2018,04,26,13,36,22.60
2018,04,26,13,37,22.70
2018,04,26,13,38,22.80
2018,04,26,13,39,22.80
2018,04,26,13,40,22.70
2018,04,26,13,41,22.60
2018,04,26,13,42,22.60
2018,04,26,13,43,22.60
2018,04,26,13,44,22.60
2018,04,26,13,45,22.60
2018,04,26,13,46,22.70
2018,04,26,13,47,22.70
2018,04,26,13,48,22.80
2018,04,26,13,49,22.90
2018,04,26,13,50,23.00
2018,04,26,13,51,23.10
2018,04,26,13,52,23.30
2018,04,26,13,53,23.30
2018,04,26,13,54,23.30
2018,04,26,13,55,23.30
2018,04,26,13,56,23.30
2018,04,26,13,57,23.30
2018,04,26,13,58,23.30
2018,04,26,13,59,23.30
2018,04,26,14,00,23.30
2018,04,26,14,01,23.30
2018,04,26,14,02,23.30
2018,04,26,14,03,23.30
2018,04,26,14,04,23.20
2018,04,26,14,05,23.00
2018,04,26,14,06,22.90
2018,04,26,14,07,22.90
2018,04,26,14,08,22.90
2018,04,26,14,09,22.90
2018,04,26,14,10,23.10
2018,04,26,14,11,23.30
2018,04,26,14,12,23.40
2018,04,26,14,13,23.50
2018,04,26,14,14,23.70
2018,04,26,14,15,23.70
2018,04,26,14,16,23.70
2018,04,26,14,17,23.70
2018,04,26,14,18,23.70
2018,04,26,14,19,23.70
2018,04,26,14,20,23.60
2018,04,26,14,21,23.50
2018,04,26,14,22,23.40
2018,04,26,14,23,23.30
2018,04,26,14,24,23.50
2018,04,26,14,25,23.70
2018,04,26,14,26,23.70
2018,04,26,14,27,23.80
2018,04,26,14,28,23.70
2018,04,26,14,29,23.70
2018,04,26,14,30,23.70
2018,04,26,14,31,23.60
2018,04,26,14,32,23.60
2018,04,26,14,33,23.50
2018,04,26,14,34,23.60
2018,04,26,14,35,23.70
2018,04,26,14,36,23.80
2018,04,26,14,37,23.90
2018,04,26,14,38,24.00
2018,04,26,14,39,23.90
2018,04,26,14,40,23.90
2018,04,26,14,41,23.80
2018,04,26,14,42,23.70
2018,04,26,14,43,23.70
2018,04,26,14,44,23.60
2018,04,26,14,45,23.60
2018,04,26,14,46,23.60
2018,04,26,14,47,23.70
2018,04,26,14,48,23.80
2018,04,26,14,49,23.90
2018,04,26,14,50,23.90
2018,04,26,14,51,23.90
2018,04,26,14,52,23.90
2018,04,26,14,53,24.00
2018,04,26,14,54,24.20
2018,04,26,14,55,24.20
2018,04,26,14,56,24.30
2018,04,26,14,57,24.30
2018,04,26,14,58,24.30
2018,04,26,14,59,24.20
2018,04,26,15,00,24.20
2018,04,26,15,01,24.10
2018,04,26,15,02,24.10
2018,04,26,15,03,24.10
2018,04,26,15,04,24.00
2018,04,26,15,05,23.80
2018,04,26,15,06,23.70
2018,04,26,15,07,23.70
2018,04,26,15,08,23.70
2018,04,26,15,09,23.60
2018,04,26,15,10,23.60
2018,04,26,15,11,23.60
2018,04,26,15,12,23.70
2018,04,26,15,13,23.80
2018,04,26,15,14,23.80
2018,04,26,15,15,23.90
2018,04,26,15,16,24.00
2018,04,26,15,17,24.20
2018,04,26,15,18,24.30
2018,04,26,15,19,24.30
2018,04,26,15,20,24.40
2018,04,26,15,21,24.40
2018,04,26,15,22,24.30
2018,04,26,15,23,24.20
2018,04,26,15,24,24.30
2018,04,26,15,25,24.20
2018,04,26,15,26,24.30
2018,04,26,15,27,24.30
2018,04,26,15,28,24.20
2018,04,26,15,29,24.20
2018,04,26,15,30,24.20
2018,04,26,15,31,24.20
2018,04,26,15,32,24.40
2018,04,26,15,33,24.50
2018,04,26,15,34,24.50
2018,04,26,15,35,24.40
2018,04,26,15,36,24.40
2018,04,26,15,37,24.40
2018,04,26,15,38,24.40
2018,04,26,15,39,24.50
2018,04,26,15,40,24.50
2018,04,26,15,41,24.60
2018,04,26,15,42,24.60
2018,04,26,15,43,24.50
2018,04,26,15,44,24.40
2018,04,26,15,45,24.50
2018,04,26,15,46,24.50
2018,04,26,15,47,24.50
2018,04,26,15,48,24.50
2018,04,26,15,49,24.50
2018,04,26,15,50,24.60
2018,04,26,15,51,24.60
2018,04,26,15,52,24.60
2018,04,26,15,53,24.70
2018,04,26,15,54,24.70
2018,04,26,15,55,24.70
2018,04,26,15,56,24.80
2018,04,26,15,57,24.90
2018,04,26,15,58,25.00
2018,04,26,15,59,25.00
2018,04,26,16,00,25.10
2018,04,26,16,01,25.00
2018,04,26,16,02,24.90
2018,04,26,16,03,24.90
2018,04,26,16,04,24.80
2018,04,26,16,05,24.80
2018,04,26,16,06,24.90
2018,04,26,16,07,24.80
2018,04,26,16,08,24.70
2018,04,26,16,09,24.60
2018,04,26,16,10,24.50
2018,04,26,16,11,24.40
2018,04,26,16,12,24.40
2018,04,26,16,13,24.40
2018,04,26,16,14,24.40
2018,04,26,16,15,24.30
2018,04,26,16,16,24.30
2018,04,26,16,17,24.20
2018,04,26,16,18,24.30
2018,04,26,16,19,24.40
2018,04,26,16,20,24.50
2018,04,26,16,21,24.60
2018,04,26,16,22,24.70
2018,04,26,16,23,24.80
2018,04,26,16,24,24.70
2018,04,26,16,25,24.70
2018,04,26,16,26,24.70
2018,04,26,16,27,24.70
2018,04,26,16,28,24.70
2018,04,26,16,29,24.70
2018,04,26,16,30,24.70
2018,04,26,16,31,24.70
2018,04,26,16,32,24.70
2018,04,26,16,33,24.70
2018,04,26,16,34,24.70
2018,04,26,16,35,24.70
2018,04,26,16,36,24.70
2018,04,26,16,37,24.60
2018,04,26,16,38,24.70
2018,04,26,16,39,24.70
2018,04,26,16,40,24.80
2018,04,26,16,41,24.80
2018,04,26,16,42,24.90
2018,04,26,16,43,24.90
2018,04,26,16,44,24.90
2018,04,26,16,45,24.90
2018,04,26,16,46,24.90
2018,04,26,16,47,24.90
2018,04,26,16,48,24.90
2018,04,26,16,49,24.90
2018,04,26,16,50,24.90
2018,04,26,16,51,24.90
2018,04,26,16,52,24.90
2018,04,26,16,53,24.90
2018,04,26,16,54,24.80
2018,04,26,16,55,24.80
2018,04,26,16,56,24.70
2018,04,26,16,57,24.70
2018,04,26,16,58,24.70
2018,04,26,16,59,24.70
2018,04,26,17,00,24.70
2018,04,26,17,01,24.80
2018,04,26,17,02,24.90
2018,04,26,17,03,25.00
2018,04,26,17,04,25.00
2018,04,26,17,05,25.00
2018,04,26,17,06,24.90
2018,04,26,17,07,24.80
2018,04,26,17,08,24.80
2018,04,26,17,09,24.80
2018,04,26,17,10,24.70
2018,04,26,17,11,24.60
2018,04,26,17,12,24.50
2018,04,26,17,13,24.40
2018,04,26,17,14,24.30
2018,04,26,17,15,24.20
2018,04,26,17,16,24.20
2018,04,26,17,17,24.30
2018,04,26,17,18,24.30
2018,04,26,17,19,24.30
2018,04,26,17,20,24.30
2018,04,26,17,21,24.30
2018,04,26,17,22,24.40
2018,04,26,17,23,24.40
2018,04,26,17,24,24.40
2018,04,26,17,25,24.40